QPF
0.00 0.00 0.00 0.00 0.00 0.00 0.00 0.00 0.00 0.00 0.00 0.00 0.00 0.00 0.00 0.00 0.01 0.02 0.02 0.03 0.04 0.04 0.05 0.06 0.07 0.08 0.09 0.11 0.14 0.17 0.21 0.25 0.28 0.26 0.26 0.28 0.30 0.30 0.30 0.27 0.23 0.20 0.17
0.00 0.00 0.00 0.00 0.00 0.00 0.00 0.00 0.00 0.00 0.00 0.00 0.00 0.00 0.00 0.00 0.01 0.01 0.01 0.02 0.02 0.03 0.03 0.03 0.04 0.05 0.06 0.07 0.09 0.12 0.15 0.19 0.22 0.22 0.21 0.21 0.20 0.19 0.17 0.14 0.11 0.09 0.07
0.00 0.00 0.00 0.00 0.00 0.00 0.00 0.00 0.00 0.00 0.00 0.00 0.00 0.00 0.00 0.00 0.00 0.01 0.01 0.01 0.02 0.02 0.02 0.03 0.03 0.04 0.04 0.06 0.08 0.10 0.11 0.13 0.15 0.15 0.15 0.14 0.11 0.09 0.08 0.06 0.04 0.03 0.02
0.00 0.00 0.00 0.00 0.00 0.00 0.00 0.00 0.00 0.00 0.00 0.00 0.00 0.00 0.00 0.00 0.00 0.01 0.01 0.01 0.01 0.01 0.02 0.03 0.04 0.04 0.05 0.06 0.08 0.09 0.10 0.10 0.10 0.09 0.09 0.08 0.07 0.05 0.04 0.03 0.02 0.01 0.01
0.00 0.00 0.00 0.00 0.00 0.00 0.00 0.00 0.00 0.00 0.00 0.00 0.00 0.00 0.00 0.00 0.00 0.00 0.00 0.00 0.00 0.01 0.01 0.02 0.03 0.04 0.05 0.05 0.06 0.07 0.07 0.07 0.06 0.06 0.05 0.05 0.04 0.03 0.02 0.01 0.01 0.00 0.00
0.00 0.00 0.00 0.00 0.00 0.00 0.00 0.00 0.00 0.00 0.00 0.00 0.00 0.00 0.00 0.00 0.00 0.00 0.00 0.00 0.01 0.02 0.03 0.03 0.03 0.03 0.03 0.04 0.05 0.05 0.04 0.04 0.03 0.03 0.03 0.03 0.02 0.01 0.00 0.00 0.00 0.00 0.00
0.00 0.00 0.00 0.00 0.00 0.00 0.00 0.00 0.00 0.00 0.00 0.00 0.00 0.00 0.00 0.00 0.00 0.00 0.00 0.00 0.00 0.01 0.01 0.02 0.02 0.02 0.02 0.02 0.03 0.04 0.04 0.03 0.02 0.01 0.01 0.01 0.00 0.00 0.00 0.00 0.00 0.00 0.00
0.00 0.00 0.00 0.00 0.00 0.00 0.00 0.00 0.00 0.00 0.00 0.00 0.00 0.00 0.00 0.00 0.00 0.00 0.00 0.00 0.00 0.01 0.01 0.02 0.02 0.01 0.01 0.02 0.02 0.02 0.02 0.01 0.01 0.00 0.00 0.00 0.00 0.00 0.00 0.00 0.00 0.00 0.00
0.00 0.00 0.00 0.00 0.00 0.00 0.00 0.00 0.00 0.00 0.00 0.00 0.00 0.00 0.00 0.00 0.00 0.00 0.00 0.00 0.00 0.00 0.00 0.01 0.01 0.01 0.01 0.01 0.00 0.00 0.00 0.00 0.00 0.00 0.00 0.00 0.00 0.00 0.00 0.00 0.00 0.00 0.00
0.00 0.00 0.00 0.00 0.00 0.00 0.00 0.00 0.00 0.00 0.00 0.00 0.00 0.00 0.00 0.00 0.00 0.00 0.00 0.00 0.00 0.00 0.00 0.00 0.00 0.00 0.00 0.00 0.00 0.00 0.00 0.00 0.00 0.00 0.00 0.00 0.00 0.00 0.00 0.00 0.00 0.00 0.00
0.00 0.00 0.00 0.00 0.00 0.00 0.00 0.00 0.00 0.00 0.00 0.00 0.00 0.00 0.00 0.00 0.00 0.00 0.00 0.00 0.00 0.00 0.00 0.00 0.00 0.00 0.00 0.00 0.00 0.00 0.00 0.00 0.00 0.00 0.00 0.00 0.00 0.00 0.00 0.00 0.00 0.00 0.00
0.00 0.00 0.00 0.00 0.00 0.00 0.00 0.00 0.00 0.00 0.00 0.00 0.00 0.00 0.00 0.00 0.00 0.00 0.00 0.00 0.00 0.00 0.00 0.00 0.00 0.00 0.00 0.00 0.00 0.00 0.00 0.00 0.00 0.00 0.00 0.00 0.00 0.00 0.00 0.00 0.00 0.00 0.00
0.00 0.00 0.00 0.00 0.00 0.00 0.00 0.00 0.00 0.00 0.00 0.00 0.00 0.00 0.00 0.00 0.00 0.00 0.00 0.00 0.00 0.00 0.00 0.00 0.00 0.00 0.00 0.00 0.00 0.00 0.00 0.00 0.00 0.00 0.00 0.00 0.00 0.00 0.00 0.00 0.00 0.00 0.00
0.00 0.00 0.00 0.00 0.00 0.00 0.00 0.00 0.00 0.00 0.00 0.00 0.00 0.00 0.00 0.00 0.00 0.00 0.00 0.00 0.00 0.00 0.00 0.00 0.00 0.00 0.00 0.00 0.00 0.00 0.00 0.00 0.00 0.00 0.00 0.00 0.00 0.00 0.00 0.00 0.00 0.00 0.00
0.00 0.00 0.00 0.00 0.00 0.00 0.00 0.00 0.00 0.00 0.00 0.00 0.00 0.00 0.00 0.00 0.00 0.00 0.00 0.00 0.00 0.00 0.00 0.00 0.00 0.00 0.00 0.00 0.00 0.00 0.00 0.00 0.00 0.00 0.00 0.00 0.00 0.00 0.00 0.00 0.00 0.00 0.00
0.00 0.00 0.00 0.00 0.00 0.00 0.00 0.00 0.00 0.00 0.00 0.00 0.00 0.00 0.00 0.00 0.00 0.00 0.00 0.00 0.00 0.00 0.00 0.00 0.00 0.00 0.00 0.00 0.00 0.00 0.00 0.00 0.00 0.00 0.00 0.00 0.00 0.00 0.00 0.00 0.00 0.01 0.01
0.00 0.00 0.00 0.00 0.00 0.00 0.00 0.00 0.00 0.00 0.00 0.00 0.00 0.00 0.00 0.00 0.00 0.00 0.00 0.00 0.00 0.00 0.00 0.00 0.00 0.00 0.00 0.00 0.00 0.00 0.00 0.00 0.00 0.00 0.00 0.00 0.00 0.00 0.00 0.00 0.00 0.01 0.01
0.00 0.00 0.00 0.00 0.00 0.00 0.00 0.00 0.00 0.00 0.00 0.00 0.00 0.00 0.00 0.00 0.00 0.00 0.00 0.00 0.00 0.00 0.00 0.00 0.00 0.00 0.00 0.00 0.00 0.00 0.00 0.00 0.00 0.00 0.00 0.00 0.00 0.00 0.01 0.00 0.00 0.01 0.01
0.00 0.00 0.00 0.00 0.00 0.00 0.00 0.00 0.00 0.00 0.00 0.00 0.00 0.00 0.00 0.00 0.00 0.00 0.00 0.00 0.00 0.00 0.00 0.00 0.00 0.00 0.00 0.00 0.00 0.00 0.00 0.00 0.00 0.00 0.00 0.00 0.00 0.01 0.01 0.01 0.01 0.01 0.01
0.00 0.01 0.00 0.00 0.00 0.00 0.00 0.00 0.00 0.00 0.00 0.00 0.00 0.00 0.00 0.00 0.00 0.00 0.00 0.00 0.00 0.00 0.00 0.00 0.00 0.00 0.00 0.00 0.00 0.00 0.00 0.00 0.00 0.00 0.00 0.00 0.00 0.01 0.01 0.01 0.01 0.01 0.01
0.01 0.01 0.01 0.00 0.00 0.00 0.00 0.00 0.00 0.00 0.00 0.00 0.00 0.00 0.00 0.00 0.00 0.00 0.00 0.00 0.00 0.00 0.00 0.00 0.00 0.00 0.00 0.00 0.00 0.00 0.00 0.00 0.00 0.00 0.00 0.00 0.01 0.01 0.01 0.01 0.01 0.01 0.01
0.01 0.01 0.01 0.01 0.00 0.00 0.00 0.00 0.00 0.00 0.00 0.00 0.00 0.00 0.00 0.00 0.00 0.00 0.00 0.00 0.00 0.00 0.00 0.00 0.00 0.00 0.00 0.00 0.00 0.00 0.00 0.00 0.00 0.00 0.01 0.01 0.01 0.01 0.01 0.01 0.01 0.01 0.01
0.02 0.02 0.02 0.01 0.01 0.00 0.00 0.00 0.00 0.00 0.00 0.00 0.00 0.00 0.00 0.00 0.00 0.00 0.00 0.00 0.00 0.00 0.00 0.00 0.00 0.00 0.00 0.00 0.00 0.00 0.01 0.00 0.00 0.01 0.02 0.01 0.01 0.01 0.01 0.01 0.01 0.01 0.01
0.02 0.03 0.03 0.02 0.02 0.01 0.01 0.00 0.00 0.00 0.00 0.00 0.00 0.00 0.00 0.00 0.00 0.00 0.00 0.00 0.00 0.00 0.00 0.00 0.00 0.00 0.00 0.00 0.00 0.00 0.01 0.01 0.02 0.02 0.02 0.02 0.01 0.01 0.01 0.01 0.01 0.01 0.01
0.03 0.03 0.03 0.03 0.02 0.02 0.01 0.01 0.00 0.00 0.00 0.00 0.00 0.00 0.00 0.00 0.00 0.00 0.00 0.00 0.00 0.00 0.00 0.00 0.00 0.00 0.00 0.00 0.00 0.00 0.00 0.01 0.02 0.04 0.05 0.05 0.03 0.02 0.02 0.02 0.02 0.02 0.02
0.04 0.05 0.04 0.04 0.03 0.02 0.01 0.00 0.00 0.00 0.00 0.00 0.00 0.00 0.00 0.00 0.00 0.00 0.00 0.00 0.00 0.00 0.00 0.00 0.00 0.00 0.00 0.00 0.00 0.00 0.00 0.01 0.01 0.02 0.05 0.06 0.05 0.04 0.03 0.04 0.04 0.04 0.04
MSLP
1019.52 1019.34 1019.17 1019.00 1018.81 1018.59 1018.34 1018.05 1017.73 1017.40 1017.07 1016.78 1016.53 1016.35 1016.24 1016.22 1016.28 1016.41 1016.60 1016.83 1017.07 1017.30 1017.50 1017.65 1017.75 1017.81 1017.83 1017.84 1017.84 1017.87 1017.94 1018.06 1018.22 1018.43 1018.67 1018.93 1019.20 1019.48 1019.77 1020.07 1020.39 1020.73 1021.08
1019.69 1019.52 1019.37 1019.23 1019.10 1018.95 1018.78 1018.57 1018.33 1018.07 1017.81 1017.55 1017.33 1017.15 1017.05 1017.01 1017.06 1017.17 1017.34 1017.54 1017.75 1017.95 1018.11 1018.22 1018.28 1018.29 1018.26 1018.22 1018.19 1018.19 1018.23 1018.33 1018.48 1018.67 1018.89 1019.13 1019.39 1019.65 1019.92 1020.19 1020.48 1020.79 1021.10
1019.83 1019.67 1019.55 1019.46 1019.39 1019.31 1019.22 1019.09 1018.94 1018.75 1018.54 1018.34 1018.15 1017.99 1017.89 1017.86 1017.89 1017.98 1018.12 1018.29 1018.47 1018.62 1018.74 1018.81 1018.82 1018.79 1018.72 1018.65 1018.59 1018.56 1018.58 1018.66 1018.79 1018.96 1019.17 1019.39 1019.63 1019.87 1020.12 1020.37 1020.62 1020.89 1021.15
1019.96 1019.84 1019.76 1019.72 1019.70 1019.69 1019.66 1019.61 1019.53 1019.41 1019.27 1019.11 1018.96 1018.83 1018.74 1018.70 1018.72 1018.79 1018.90 1019.04 1019.17 1019.29 1019.36 1019.39 1019.36 1019.29 1019.20 1019.10 1019.02 1018.97 1018.97 1019.03 1019.14 1019.29 1019.48 1019.69 1019.90 1020.12 1020.34 1020.57 1020.79 1021.01 1021.22
1020.10 1020.03 1020.01 1020.02 1020.06 1020.10 1020.13 1020.14 1020.12 1020.06 1019.97 1019.86 1019.74 1019.64 1019.56 1019.52 1019.53 1019.57 1019.65 1019.75 1019.85 1019.92 1019.96 1019.94 1019.89 1019.79 1019.67 1019.56 1019.46 1019.39 1019.38 1019.42 1019.51 1019.64 1019.81 1019.99 1020.18 1020.38 1020.58 1020.78 1020.97 1021.15 1021.32
1020.28 1020.28 1020.31 1020.38 1020.46 1020.55 1020.63 1020.69 1020.72 1020.71 1020.66 1020.59 1020.50 1020.42 1020.35 1020.31 1020.30 1020.33 1020.38 1020.44 1020.49 1020.52 1020.52 1020.47 1020.39 1020.27 1020.14 1020.01 1019.89 1019.82 1019.79 1019.81 1019.88 1019.98 1020.12 1020.28 1020.45 1020.63 1020.80 1020.97 1021.14 1021.29 1021.41
1020.51 1020.57 1020.67 1020.78 1020.91 1021.04 1021.16 1021.26 1021.33 1021.35 1021.34 1021.30 1021.24 1021.18 1021.12 1021.07 1021.05 1021.05 1021.06 1021.08 1021.09 1021.08 1021.04 1020.96 1020.85 1020.72 1020.57 1020.43 1020.31 1020.23 1020.18 1020.18 1020.22 1020.30 1020.41 1020.54 1020.68 1020.83 1020.99 1021.14 1021.29 1021.41 1021.50
1020.77 1020.90 1021.05 1021.21 1021.38 1021.55 1021.71 1021.84 1021.93 1021.99 1022.01 1021.99 1021.95 1021.89 1021.83 1021.78 1021.74 1021.71 1021.69 1021.66 1021.63 1021.58 1021.51 1021.40 1021.27 1021.12 1020.97 1020.82 1020.69 1020.59 1020.53 1020.51 1020.52 1020.57 1020.65 1020.75 1020.86 1020.99 1021.13 1021.26 1021.38 1021.49 1021.55
1021.05 1021.23 1021.43 1021.64 1021.85 1022.05 1022.23 1022.38 1022.50 1022.58 1022.61 1022.62 1022.59 1022.54 1022.47 1022.41 1022.34 1022.28 1022.22 1022.16 1022.09 1022.00 1021.90 1021.77 1021.62 1021.46 1021.30 1021.15 1021.01 1020.91 1020.83 1020.79 1020.77 1020.79 1020.84 1020.90 1020.99 1021.09 1021.20 1021.31 1021.42 1021.50 1021.54
1021.29 1021.53 1021.77 1022.02 1022.26 1022.48 1022.69 1022.86 1022.99 1023.08 1023.13 1023.14 1023.11 1023.06 1022.99 1022.91 1022.82 1022.73 1022.64 1022.54 1022.44 1022.32 1022.19 1022.04 1021.89 1021.73 1021.56 1021.41 1021.28 1021.16 1021.08 1021.01 1020.97 1020.96 1020.97 1021.01 1021.06 1021.13 1021.21 1021.29 1021.37 1021.43 1021.45
1021.46 1021.74 1022.03 1022.31 1022.57 1022.82 1023.04 1023.22 1023.36 1023.46 1023.51 1023.52 1023.49 1023.43 1023.35 1023.25 1023.14 1023.02 1022.91 1022.78 1022.65 1022.52 1022.37 1022.22 1022.07 1021.91 1021.76 1021.61 1021.48 1021.37 1021.27 1021.20 1021.14 1021.10 1021.07 1021.07 1021.08 1021.11 1021.15 1021.20 1021.25 1021.28 1021.26
1021.53 1021.85 1022.17 1022.48 1022.77 1023.03 1023.25 1023.44 1023.58 1023.67 1023.71 1023.72 1023.68 1023.61 1023.51 1023.40 1023.27 1023.14 1023.01 1022.87 1022.74 1022.60 1022.45 1022.31 1022.17 1022.03 1021.89 1021.77 1021.65 1021.54 1021.45 1021.36 1021.28 1021.21 1021.15 1021.11 1021.07 1021.05 1021.05 1021.05 1021.04 1021.02 1020.97
1021.46 1021.83 1022.18 1022.51 1022.82 1023.09 1023.31 1023.49 1023.63 1023.71 1023.74 1023.73 1023.67 1023.59 1023.49 1023.37 1023.23 1023.10 1022.97 1022.83 1022.70 1022.58 1022.45 1022.33 1022.22 1022.10 1022.00 1021.90 1021.80 1021.70 1021.61 1021.52 1021.42 1021.33 1021.23 1021.13 1021.05 1020.97 1020.90 1020.83 1020.77 1020.68 1020.57
1021.25 1021.66 1022.05 1022.41 1022.73 1023.00 1023.23 1023.40 1023.52 1023.59 1023.60 1023.57 1023.51 1023.42 1023.31 1023.18 1023.06 1022.93 1022.81 1022.70 1022.60 1022.50 1022.41 1022.32 1022.24 1022.17 1022.09 1022.02 1021.95 1021.87 1021.78 1021.68 1021.57 1021.44 1021.30 1021.16 1021.01 1020.86 1020.72 1020.58 1020.43 1020.28 1020.10
1020.89 1021.35 1021.78 1022.16 1022.50 1022.78 1023.01 1023.18 1023.29 1023.34 1023.34 1023.30 1023.23 1023.13 1023.02 1022.91 1022.80 1022.70 1022.60 1022.52 1022.46 1022.40 1022.35 1022.31 1022.27 1022.23 1022.19 1022.14 1022.09 1022.02 1021.93 1021.83 1021.69 1021.53 1021.36 1021.16 1020.95 1020.73 1020.51 1020.28 1020.05 1019.81 1019.56
1020.41 1020.91 1021.37 1021.79 1022.15 1022.45 1022.69 1022.85 1022.96 1023.01 1023.00 1022.96 1022.89 1022.79 1022.69 1022.60 1022.51 1022.44 1022.38 1022.34 1022.31 1022.30 1022.29 1022.29 1022.29 1022.28 1022.27 1022.25 1022.21 1022.14 1022.05 1021.93 1021.77 1021.58 1021.36 1021.10 1020.83 1020.54 1020.25 1019.94 1019.63 1019.31 1018.98
1019.82 1020.37 1020.87 1021.32 1021.72 1022.04 1022.29 1022.47 1022.59 1022.64 1022.64 1022.60 1022.53 1022.45 1022.37 1022.30 1022.24 1022.20 1022.18 1022.17 1022.18 1022.21 1022.23 1022.26 1022.29 1022.30 1022.31 1022.29 1022.25 1022.18 1022.07 1021.93 1021.74 1021.52 1021.25 1020.95 1020.63 1020.28 1019.92 1019.54 1019.16 1018.77 1018.37
1019.16 1019.75 1020.29 1020.78 1021.21 1021.57 1021.85 1022.06 1022.19 1022.26 1022.28 1022.26 1022.21 1022.15 1022.09 1022.03 1022.00 1021.98 1021.99 1022.01 1022.05 1022.10 1022.15 1022.19 1022.23 1022.25 1022.25 1022.22 1022.17 1022.08 1021.95 1021.78 1021.56 1021.30 1021.01 1020.67 1020.30 1019.90 1019.49 1019.06 1018.63 1018.18 1017.73
1018.48 1019.09 1019.67 1020.20 1020.67 1021.06 1021.38 1021.63 1021.79 1021.89 1021.93 1021.93 1021.91 1021.87 1021.82 1021.79 1021.78 1021.78 1021.81 1021.85 1021.89 1021.95 1022.00 1022.04 1022.06 1022.07 1022.05 1022.00 1021.91 1021.79 1021.63 1021.43 1021.19 1020.90 1020.57 1020.20 1019.80 1019.38 1018.93 1018.48 1018.01 1017.53 1017.04
1017.83 1018.46 1019.05 1019.61 1020.12 1020.55 1020.91 1021.19 1021.39 1021.52 1021.60 1021.62 1021.61 1021.59 1021.57 1021.55 1021.55 1021.56 1021.59 1021.63 1021.67 1021.72 1021.75 1021.77 1021.77 1021.74 1021.68 1021.59 1021.47 1021.31 1021.11 1020.88 1020.60 1020.28 1019.93 1019.55 1019.13 1018.69 1018.23 1017.76 1017.27 1016.77 1016.26
1017.25 1017.87 1018.48 1019.05 1019.58 1020.04 1020.43 1020.74 1020.98 1021.14 1021.24 1021.29 1021.31 1021.30 1021.29 1021.28 1021.28 1021.29 1021.31 1021.34 1021.37 1021.39 1021.39 1021.38 1021.33 1021.26 1021.16 1021.02 1020.85 1020.64 1020.40 1020.12 1019.82 1019.48 1019.11 1018.71 1018.28 1017.83 1017.37 1016.89 1016.39 1015.88 1015.36
1016.78 1017.37 1017.97 1018.54 1019.08 1019.55 1019.96 1020.30 1020.55 1020.74 1020.86 1020.92 1020.95 1020.96 1020.95 1020.95 1020.95 1020.95 1020.96 1020.97 1020.97 1020.96 1020.93 1020.87 1020.78 1020.65 1020.49 1020.30 1020.08 1019.82 1019.53 1019.22 1018.88 1018.51 1018.12 1017.71 1017.27 1016.82 1016.35 1015.86 1015.36 1014.83 1014.29
1016.42 1016.98 1017.55 1018.11 1018.63 1019.10 1019.51 1019.84 1020.11 1020.30 1020.42 1020.50 1020.54 1020.55 1020.55 1020.55 1020.55 1020.54 1020.54 1020.53 1020.51 1020.46 1020.39 1020.29 1020.14 1019.96 1019.75 1019.50 1019.21 1018.90 1018.57 1018.21 1017.83 1017.43 1017.02 1016.58 1016.13 1015.66 1015.17 1014.67 1014.14 1013.60 1013.03
1016.19 1016.70 1017.23 1017.75 1018.24 1018.68 1019.07 1019.39 1019.64 1019.82 1019.95 1020.03 1020.07 1020.09 1020.09 1020.09 1020.09 1020.09 1020.08 1020.05 1020.00 1019.93 1019.82 1019.67 1019.48 1019.24 1018.97 1018.66 1018.32 1017.95 1017.56 1017.15 1016.73 1016.29 1015.84 1015.37 1014.88 1014.38 1013.86 1013.32 1012.76 1012.17 1011.57
1016.03 1016.50 1016.98 1017.45 1017.89 1018.29 1018.64 1018.93 1019.15 1019.32 1019.44 1019.51 1019.56 1019.59 1019.60 1019.61 1019.61 1019.61 1019.60 1019.56 1019.49 1019.39 1019.25 1019.05 1018.81 1018.52 1018.19 1017.82 1017.41 1016.99 1016.54 1016.07 1015.60 1015.10 1014.60 1014.08 1013.55 1012.99 1012.42 1011.83 1011.21 1010.57 1009.90
1015.93 1016.34 1016.76 1017.17 1017.56 1017.91 1018.21 1018.45 1018.65 1018.80 1018.90 1018.98 1019.03 1019.07 1019.10 1019.12 1019.14 1019.14 1019.13 1019.08 1019.00 1018.87 1018.69 1018.45 1018.16 1017.81 1017.42 1016.99 1016.52 1016.02 1015.51 1014.98 1014.44 1013.89 1013.32 1012.73 1012.13 1011.51 1010.87 1010.21 1009.51 1008.80 1008.06
Thickness
5582 5583 5584 5585 5587 5588 5588 5589 5589 5588 5588 5588 5586 5584 5582 5579 5576 5572 5566 5561 5554 5545 5537 5529 5519 5510 5502 5494 5488 5483 5480 5478 5477 5472 5470 5469 5469 5471 5472 5471 5469 5468 5465
5571 5572 5573 5574 5575 5576 5576 5576 5576 5575 5574 5573 5572 5569 5567 5563 5560 5556 5550 5544 5537 5530 5521 5513 5504 5496 5487 5480 5475 5471 5467 5466 5464 5462 5459 5457 5457 5458 5459 5458 5457 5455 5453
5561 5562 5562 5563 5563 5564 5564 5563 5563 5562 5560 5559 5557 5554 5551 5548 5544 5539 5534 5528 5521 5515 5507 5500 5491 5484 5476 5469 5464 5460 5458 5456 5455 5454 5451 5449 5448 5449 5448 5448 5446 5444 5442
5551 5552 5552 5552 5552 5552 5552 5551 5550 5548 5546 5544 5542 5539 5536 5533 5529 5525 5519 5513 5507 5501 5495 5488 5481 5474 5467 5461 5456 5452 5450 5448 5447 5446 5443 5442 5440 5440 5439 5438 5435 5433 5432
5542 5542 5542 5542 5541 5541 5540 5538 5537 5535 5533 5531 5529 5526 5524 5521 5516 5511 5506 5500 5495 5489 5483 5477 5472 5466 5461 5456 5450 5446 5443 5441 5439 5437 5436 5435 5433 5432 5430 5428 5425 5422 5419
5533 5533 5533 5532 5531 5530 5528 5526 5524 5522 5520 5518 5516 5514 5511 5508 5503 5499 5493 5488 5483 5478 5473 5468 5463 5459 5455 5452 5447 5442 5438 5435 5432 5430 5428 5427 5424 5422 5419 5417 5413 5408 5405
5524 5524 5523 5522 5521 5519 5517 5515 5512 5510 5508 5506 5503 5500 5497 5494 5491 5487 5482 5476 5472 5468 5463 5459 5455 5451 5447 5443 5440 5436 5433 5431 5428 5424 5421 5418 5415 5413 5409 5406 5402 5397 5394
5516 5515 5514 5513 5511 5508 5506 5503 5500 5498 5496 5493 5490 5487 5485 5482 5479 5475 5471 5466 5462 5458 5454 5450 5446 5443 5441 5437 5433 5429 5426 5423 5421 5418 5414 5411 5408 5405 5402 5398 5393 5389 5386
5508 5507 5505 5504 5501 5499 5496 5493 5490 5488 5485 5482 5478 5475 5473 5471 5469 5466 5461 5457 5453 5449 5446 5443 5440 5436 5436 5432 5426 5422 5419 5416 5414 5411 5408 5404 5402 5398 5395 5389 5382 5376 5371
5501 5499 5497 5495 5493 5490 5487 5484 5481 5478 5475 5472 5468 5465 5463 5461 5461 5458 5453 5449 5445 5441 5438 5435 5433 5431 5428 5424 5418 5414 5410 5407 5404 5402 5398 5395 5391 5387 5384 5379 5371 5362 5354
5494 5492 5490 5487 5485 5482 5479 5476 5472 5469 5466 5463 5460 5457 5455 5453 5452 5451 5447 5442 5438 5434 5431 5427 5425 5423 5420 5417 5412 5407 5403 5401 5395 5391 5387 5383 5380 5375 5371 5366 5360 5351 5342
5488 5485 5483 5480 5478 5475 5471 5468 5465 5462 5458 5455 5452 5449 5447 5446 5444 5442 5440 5437 5432 5427 5424 5420 5417 5415 5412 5409 5404 5400 5397 5392 5385 5381 5376 5372 5367 5362 5357 5352 5346 5340 5334
5481 5479 5476 5473 5470 5468 5464 5461 5458 5455 5452 5449 5446 5443 5440 5439 5436 5435 5432 5429 5426 5420 5416 5414 5411 5408 5405 5399 5395 5392 5387 5380 5375 5370 5365 5359 5354 5349 5344 5339 5333 5328 5322
5476 5473 5470 5466 5464 5461 5459 5456 5453 5449 5446 5444 5441 5438 5434 5431 5429 5426 5423 5420 5417 5413 5409 5406 5403 5399 5395 5391 5386 5381 5375 5370 5365 5359 5354 5349 5343 5337 5331 5325 5319 5313 5308
5471 5468 5465 5461 5458 5455 5453 5450 5448 5445 5441 5439 5436 5432 5428 5425 5424 5422 5417 5413 5409 5405 5403 5397 5393 5389 5384 5380 5375 5370 5365 5360 5354 5348 5342 5336 5331 5325 5319 5313 5306 5301 5296
5467 5463 5459 5456 5452 5449 5446 5443 5442 5440 5438 5436 5432 5428 5425 5423 5420 5417 5412 5409 5405 5401 5396 5389 5384 5379 5374 5369 5364 5359 5354 5349 5343 5337 5330 5323 5318 5312 5306 5300 5294 5289 5285
5465 5460 5455 5451 5447 5443 5440 5436 5433 5432 5431 5429 5426 5423 5420 5417 5413 5410 5406 5402 5398 5394 5386 5381 5375 5370 5365 5360 5354 5348 5343 5338 5332 5325 5318 5312 5305 5299 5293 5288 5283 5278 5275
5461 5457 5452 5447 5443 5439 5435 5432 5428 5425 5422 5419 5419 5417 5414 5411 5407 5403 5400 5395 5389 5384 5378 5373 5367 5362 5357 5351 5345 5339 5334 5328 5322 5315 5308 5301 5294 5287 5282 5277 5272 5268 5265
5457 5452 5448 5442 5438 5434 5430 5426 5422 5420 5416 5413 5410 5408 5407 5404 5400 5396 5392 5387 5381 5377 5372 5367 5361 5355 5350 5344 5337 5331 5325 5318 5312 5305 5298 5291 5285 5278 5273 5269 5264 5261 5259
5452 5449 5443 5438 5433 5428 5424 5421 5417 5414 5410 5407 5404 5401 5398 5395 5391 5387 5384 5379 5375 5370 5366 5360 5355 5349 5343 5336 5330 5323 5317 5311 5304 5297 5291 5284 5277 5270 5265 5261 5257 5254 5252
5446 5442 5438 5433 5428 5424 5420 5416 5413 5408 5405 5401 5399 5396 5394 5389 5385 5381 5377 5373 5368 5364 5359 5354 5348 5342 5336 5329 5323 5316 5309 5303 5297 5290 5283 5277 5270 5264 5259 5255 5252 5249 5247
5440 5436 5432 5428 5423 5419 5415 5411 5407 5403 5400 5396 5393 5390 5389 5385 5379 5375 5371 5368 5363 5358 5353 5348 5342 5336 5330 5324 5317 5310 5303 5297 5292 5285 5278 5271 5264 5259 5254 5250 5247 5245 5243
5432 5429 5425 5421 5417 5414 5410 5405 5401 5397 5394 5390 5387 5384 5381 5377 5373 5369 5366 5362 5357 5352 5347 5341 5336 5331 5326 5320 5313 5306 5300 5294 5288 5281 5274 5267 5261 5256 5251 5248 5245 5243 5242
5425 5422 5418 5414 5410 5406 5403 5399 5395 5392 5388 5385 5382 5378 5375 5371 5367 5364 5359 5355 5350 5346 5341 5336 5331 5326 5321 5315 5309 5303 5297 5291 5284 5277 5271 5265 5260 5255 5252 5249 5248 5247 5245
5417 5414 5411 5407 5403 5400 5396 5393 5389 5386 5383 5380 5377 5374 5370 5366 5361 5357 5353 5348 5344 5339 5335 5331 5326 5321 5316 5311 5305 5300 5294 5288 5282 5277 5272 5267 5263 5259 5256 5254 5253 5252 5251
5409 5406 5403 5400 5397 5394 5390 5387 5385 5382 5378 5375 5371 5367 5363 5359 5355 5351 5346 5342 5338 5334 5330 5326 5321 5317 5312 5307 5302 5297 5291 5286 5281 5276 5271 5268 5266 5263 5261 5260 5259 5258 5258